EW3281 Weather Reports


Display with metric or nautical units.
time (UTC)temp
F
wind
direction
speed
MPH
gust
MPH
rain 1hr
in
rain 24hr
in
rain mn
in
humidity
%
barometer
mb
20260905042009 65 235 0.0 0.0 0.00 0.00 0.00 89 1007.1
20260905041509 65 235 0.0 0.0 0.00 0.00 0.00 89 1007.2
20260905041008 65 235 0.0 0.0 0.00 0.00 0.00 89 1007.2
20260905040508 65 235 0.0 0.0 0.00 0.00 0.00 88 1007.3
20260905040016 65 235 0.0 0.0 0.00 0.00 0.00 88 1007.2
20260905035507 65 235 0.0 0.0 0.00 0.00 0.00 88 1007.2
20260905035006 66 235 0.0 0.0 0.00 0.00 0.00 87 1007.2
20260905034507 66 235 0.0 0.0 0.00 0.00 0.00 87 1007.2
20260905034005 66 235 0.0 0.0 0.00 0.00 0.00 87 1007.1
20260905033505 66 235 0.0 0.0 0.00 0.00 0.00 86 1007.1
20260905033004 67 235 0.0 0.0 0.00 0.00 0.00 86 1007.0
20260905032502 67 235 0.0 0.0 0.00 0.00 0.00 86 1007.0
20260905032005 67 235 0.0 0.0 0.00 0.00 0.00 85 1006.9
20260905031602 67 235 0.0 0.0 0.00 0.00 0.00 85 1007.0
20260905031100 68 235 0.0 0.0 0.00 0.00 0.00 84 1007.0
20260905030559 68 235 0.0 0.0 0.00 0.00 0.00 84 1006.9
20260905030121 68 235 0.0 0.0 0.00 0.00 0.00 83 1007.0
20260905025557 69 235 0.0 0.0 0.00 0.00 0.00 82 1007.0
20260905025056 69 235 0.0 0.0 0.00 0.00 0.00 82 1007.0
20260905024058 69 235 0.0 0.0 0.00 0.00 0.00 82 1006.8
20260905023601 69 235 0.0 0.0 0.00 0.00 0.00 83 1006.8
20260905023058 69 235 0.0 0.0 0.00 0.00 0.00 82 1006.8
20260905022557 69 235 0.0 0.0 0.00 0.00 0.00 82 1006.9
20260905022057 69 235 0.0 0.0 0.00 0.00 0.00 81 1006.9
20260905021557 69 235 0.0 0.0 0.00 0.00 0.00 81 1006.8
20260905021055 69 235 0.0 0.0 0.00 0.00 0.00 81 1006.9
20260905020558 70 235 0.0 0.0 0.00 0.00 0.00 79 1006.9
20260905020104 70 235 0.0 0.0 0.00 0.00 0.00 79 1007.0
20260905015553 70 235 0.0 0.0 0.00 0.00 0.00 78 1007.1
20260905015054 71 235 0.0 0.0 0.00 0.00 0.00 77 1007.1
20260905014051 71 235 0.0 0.0 0.00 0.00 0.00 77 1007.2
20260905013547 71 235 0.0 0.0 0.00 0.00 0.00 76 1007.2
20260905013046 72 235 0.0 0.0 0.00 0.00 0.00 76 1007.3
20260905012545 72 235 0.0 0.0 0.00 0.00 0.00 76 1007.3
20260905012045 71 235 0.0 0.0 0.00 0.00 0.00 76 1007.3
20260905011544 72 235 0.0 0.0 0.00 0.00 0.00 74 1007.3
20260905011042 72 235 0.0 0.0 0.00 0.00 0.00 74 1007.3
20260905010542 72 235 0.0 0.0 0.00 0.00 0.00 73 1007.3
20260905010040 72 235 0.0 0.0 0.00 0.00 0.00 73 1007.3
20260905005541 72 235 0.0 0.0 0.00 0.00 0.00 72 1007.3
20260905005039 73 235 0.0 0.0 0.00 0.00 0.00 71 1007.3
20260905004038 73 235 0.0 0.0 0.00 0.00 0.00 71 1007.3
20260905003537 73 235 0.0 0.0 0.00 0.00 0.00 70 1007.2
20260905003036 74 235 0.0 0.0 0.00 0.00 0.00 69 1007.1
20260905002536 74 235 0.0 0.0 0.00 0.00 0.00 68 1007.0
20260905002034 74 235 0.0 0.0 0.00 0.00 0.00 68 1007.0
20260905001534 74 238 0.0 0.0 0.00 0.00 0.00 68 1006.9
20260905001036 74 237 0.0 0.0 0.00 0.00 0.00 67 1006.9
20260905000534 74 238 0.0 0.0 0.00 0.00 0.00 67 1006.9
20260905000033 74 224 0.0 0.0 0.00 0.00 0.00 68 1006.8
20260904235531 75 224 0.0 0.0 0.00 0.00 0.00 67 1006.8
20260904235031 75 224 0.0 0.0 0.00 0.00 0.00 66 1006.7
20260904234033 75 224 0.0 0.0 0.00 0.00 0.00 64 1006.6
20260904233532 75 224 0.0 0.0 0.00 0.00 0.00 64 1006.6
20260904233038 75 221 0.0 0.0 0.00 0.00 0.00 66 1006.6
20260904232531 76 221 0.0 0.0 0.00 0.00 0.00 66 1006.6
20260904232029 76 221 0.0 0.0 0.00 0.00 0.00 65 1006.6
20260904231529 77 221 0.0 0.0 0.00 0.00 0.00 64 1006.5
20260904231026 77 221 0.0 0.0 0.00 0.00 0.00 64 1006.5
20260904230530 77 221 0.0 0.0 0.00 0.00 0.00 63 1006.5
20260904230024 78 221 0.0 0.0 0.00 0.00 0.00 62 1006.5
20260904225523 78 221 0.0 0.0 0.00 0.00 0.00 62 1006.4
20260904225022 79 221 0.0 0.0 0.00 0.00 0.00 59 1006.4
20260904224024 79 243 0.0 0.0 0.00 0.00 0.00 59 1006.4
20260904223521 79 224 0.0 0.0 0.00 0.00 0.00 58 1006.4
20260904223025 79 219 0.0 0.0 0.00 0.00 0.00 58 1006.3
20260904222522 80 96 0.0 0.0 0.00 0.00 0.00 58 1006.3
20260904222019 80 207 0.0 0.0 0.00 0.00 0.00 58 1006.3
20260904221518 80 149 0.0 0.0 0.00 0.00 0.00 57 1006.2
20260904221018 80 233 0.0 0.0 0.00 0.00 0.00 57 1006.2
20260904220517 81 226 0.0 0.0 0.00 0.00 0.00 56 1006.2
20260904220018 81 225 0.0 0.0 0.00 0.00 0.00 55 1006.2
20260904215515 81 236 0.0 0.0 0.00 0.00 0.00 54 1006.3
20260904215017 82 225 0.0 0.0 0.00 0.00 0.00 53 1006.2
20260904214014 82 34 0.0 0.0 0.00 0.00 0.00 53 1006.2
20260904213516 83 224 0.0 0.0 0.00 0.00 0.00 51 1006.3
20260904213024 84 228 0.0 0.0 0.00 0.00 0.00 50 1006.3
20260904212513 85 226 0.0 0.0 0.00 0.00 0.00 49 1006.2
20260904212012 85 217 0.0 0.0 0.00 0.00 0.00 48 1006.2
20260904211512 85 222 0.0 0.0 0.00 0.00 0.00 48 1006.1
20260904211014 85 248 0.0 0.0 0.00 0.00 0.00 47 1006.1
20260904210512 86 220 0.0 0.0 0.00 0.00 0.00 48 1006.1
20260904210023 85 200 0.0 0.0 0.00 0.00 0.00 48 1006.1
20260904205514 85 164 0.0 0.0 0.00 0.00 0.00 48 1006.1
20260904205011 86 209 0.0 2.0 0.00 0.00 0.00 47 1006.0
20260904204014 86 226 0.0 0.0 0.00 0.00 0.00 47 1006.1
20260904203514 86 245 0.0 0.0 0.00 0.00 0.00 45 1006.2
20260904203012 86 212 0.0 0.0 0.00 0.00 0.00 45 1006.2
20260904202510 86 226 0.0 0.0 0.00 0.00 0.00 45 1006.2
20260904202010 86 221 0.0 0.0 0.00 0.00 0.00 45 1006.3
20260904201511 87 227 0.0 0.0 0.00 0.00 0.00 46 1006.1
20260904201010 87 207 0.0 0.0 0.00 0.00 0.00 44 1006.1
20260904200513 87 165 0.0 0.0 0.00 0.00 0.00 45 1006.1
20260904200009 87 236 0.0 0.0 0.00 0.00 0.00 48 1006.1
20260904195512 86 189 0.0 0.0 0.00 0.00 0.00 50 1006.1
20260904195009 86 140 0.0 0.0 0.00 0.00 0.00 51 1006.1
20260904194009 86 338 0.0 0.0 0.00 0.00 0.00 52 1006.0
20260904193509 85 224 0.0 0.0 0.00 0.00 0.00 52 1006.1
20260904193009 85 226 0.0 0.0 0.00 0.00 0.00 52 1006.1
20260904192508 84 187 0.0 0.0 0.00 0.00 0.00 55 1006.2
20260904192007 84 212 0.0 0.0 0.00 0.00 0.00 54 1006.3
20260904191507 84 229 0.0 0.0 0.00 0.00 0.00 56 1006.3
20260904191007 84 17 0.0 0.0 0.00 0.00 0.00 60 1006.4
20260904190507 83 191 0.0 0.0 0.00 0.00 0.00 57 1006.4
20260904190006 84 188 0.0 0.0 0.00 0.00 0.00 55 1006.3
20260904185506 85 234 0.0 0.0 0.00 0.00 0.00 54 1006.3
20260904185006 85 209 0.0 0.0 0.00 0.00 0.00 53 1006.3
20260904184004 86 215 0.0 0.0 0.00 0.00 0.00 52 1006.2
20260904183503 86 176 0.0 0.0 0.00 0.00 0.00 53 1006.2
20260904183004 86 194 0.0 0.0 0.00 0.00 0.00 52 1006.2
20260904182502 86 200 0.0 0.0 0.00 0.00 0.00 51 1006.1
20260904182001 85 332 0.0 0.0 0.00 0.00 0.00 59 1006.2
20260904181600 85 202 0.0 0.0 0.00 0.00 0.00 54 1006.2
20260904181100 84 129 0.0 0.0 0.00 0.00 0.00 57 1006.2
20260904180603 83 103 0.0 0.0 0.00 0.00 0.00 61 1006.2
20260904180109 83 103 0.0 0.0 0.00 0.00 0.00 61 1006.2
20260904175559 83 349 0.0 1.0 0.00 0.00 0.00 58 1006.2
20260904175058 83 326 0.0 0.0 0.00 0.00 0.00 57 1006.3
20260904174058 84 181 0.0 0.0 0.00 0.00 0.00 59 1006.4
20260904173558 84 181 0.0 0.0 0.00 0.00 0.00 56 1006.4
20260904173105 84 153 0.0 0.0 0.00 0.00 0.00 59 1006.5
20260904172559 84 182 0.0 0.0 0.00 0.00 0.00 57 1006.6
20260904172059 84 181 0.0 0.0 0.00 0.00 0.00 57 1006.6
20260904171603 84 349 0.0 0.0 0.00 0.00 0.00 57 1006.6
20260904171057 83 327 0.0 0.0 0.00 0.00 0.00 59 1006.7
20260904170557 83 263 0.0 0.0 0.00 0.00 0.00 59 1006.6
20260904170057 83 170 0.0 0.0 0.00 0.00 0.00 59 1006.6
20260904165557 84 165 0.0 0.0 0.00 0.00 0.00 56 1006.7
20260904165057 84 354 0.0 0.0 0.00 0.00 0.00 58 1006.7
20260904164054 85 336 0.0 0.0 0.00 0.00 0.00 55 1006.6
20260904163553 85 176 0.0 0.0 0.00 0.00 0.00 56 1006.7
20260904163052 84 239 0.0 0.0 0.00 0.00 0.00 56 1006.8
20260904162551 84 188 0.0 0.0 0.00 0.00 0.00 58 1006.8
20260904162051 84 348 0.0 0.0 0.00 0.00 0.00 58 1007.0
20260904161550 84 292 0.0 0.0 0.00 0.00 0.00 59 1006.9
20260904161048 84 193 0.0 0.0 0.00 0.00 0.00 59 1007.0
20260904160548 84 27 0.0 0.0 0.00 0.00 0.00 59 1007.1
20260904160048 83 211 0.0 0.0 0.00 0.00 0.00 60 1007.1
20260904155549 83 329 0.0 1.0 0.00 0.00 0.00 59 1007.1
20260904155044 82 217 0.0 0.0 0.00 0.00 0.00 62 1007.0
20260904154048 82 115 0.0 0.0 0.00 0.00 0.00 61 1007.2
20260904153546 81 217 0.0 0.0 0.00 0.00 0.00 62 1007.2
20260904153051 81 122 0.0 0.0 0.00 0.00 0.00 61 1007.3
20260904152545 81 115 0.0 0.0 0.00 0.00 0.00 64 1007.2
20260904152045 81 191 0.0 0.0 0.00 0.00 0.00 65 1007.2
20260904151544 80 202 0.0 0.0 0.00 0.00 0.00 65 1007.2
20260904151047 80 213 0.0 0.0 0.00 0.00 0.00 66 1007.2
20260904150543 80 226 0.0 0.0 0.00 0.00 0.00 67 1007.3
20260904150043 80 202 0.0 0.0 0.00 0.00 0.00 66 1007.3
20260904145547 80 23 0.0 0.0 0.00 0.00 0.00 66 1007.4
20260904145042 79 226 0.0 0.0 0.00 0.00 0.00 67 1007.4
20260904144041 79 218 0.0 0.0 0.00 0.00 0.00 67 1007.3
20260904143540 79 254 0.0 0.0 0.00 0.00 0.00 69 1007.4
20260904143040 79 203 0.0 0.0 0.00 0.01 0.00 69 1007.4
20260904142542 79 210 0.0 0.0 0.00 0.01 0.00 68 1007.5
20260904142038 79 193 0.0 0.0 0.00 0.01 0.00 69 1007.5
20260904141541 78 98 0.0 0.0 0.00 0.01 0.00 68 1007.6
20260904141038 78 241 0.0 0.0 0.00 0.01 0.00 70 1007.5
20260904140538 77 125 0.0 0.0 0.00 0.01 0.00 72 1007.5
20260904140038 77 259 0.0 0.0 0.00 0.01 0.00 74 1007.5
20260904135538 77 312 0.0 0.0 0.00 0.01 0.00 75 1007.5
20260904135038 76 203 0.0 0.0 0.00 0.01 0.00 77 1007.5
20260904134041 75 229 0.0 0.0 0.00 0.01 0.00 79 1007.7
20260904133541 75 338 0.0 0.0 0.00 0.01 0.00 82 1007.7
20260904133042 75 220 0.0 0.0 0.00 0.01 0.00 84 1007.7
20260904132541 75 325 0.0 0.0 0.00 0.01 0.00 86 1007.6
20260904132042 74 157 0.0 0.0 0.00 0.01 0.00 89 1007.8
20260904131556 74 211 0.0 0.0 0.00 0.01 0.00 91 1007.8
20260904131041 73 203 0.0 0.0 0.00 0.01 0.00 91 1007.8
20260904130541 73 217 0.0 0.0 0.00 0.01 0.00 93 1007.8
20260904130042 72 203 0.0 0.0 0.00 0.01 0.00 95 1007.8
20260904125541 71 214 0.0 0.0 0.00 0.01 0.00 96 1007.8
20260904125040 71 191 0.0 0.0 0.00 0.01 0.00 97 1007.8
20260904124046 71 243 0.0 0.0 0.00 0.01 0.00 97 1007.8
20260904123542 71 243 0.0 0.0 0.00 0.01 0.00 97 1007.9
20260904123044 71 242 0.0 0.0 0.00 0.01 0.00 97 1007.9
20260904122542 71 243 0.0 0.0 0.00 0.01 0.00 97 1008.0
20260904122044 71 288 0.0 0.0 0.00 0.01 0.00 98 1007.9
20260904121541 71 288 0.0 0.0 0.00 0.01 0.00 98 1007.9
20260904121041 71 288 0.0 0.0 0.00 0.01 0.00 98 1007.9
20260904120541 71 288 0.0 0.0 0.00 0.01 0.00 98 1007.9
20260904120049 71 288 0.0 0.0 0.00 0.01 0.00 98 1007.9
20260904115541 71 288 0.0 0.0 0.00 0.01 0.00 98 1007.9
20260904115041 70 288 0.0 0.0 0.00 0.01 0.00 98 1008.0
20260904114036 70 288 0.0 0.0 0.00 0.01 0.00 97 1008.2
20260904113536 70 288 0.0 0.0 0.00 0.01 0.00 97 1008.1
20260904113036 69 288 0.0 0.0 0.00 0.01 0.00 97 1008.2
20260904112535 69 288 0.0 0.0 0.00 0.01 0.00 97 1008.0
20260904112035 69 288 0.0 0.0 0.00 0.01 0.00 97 1007.9
20260904111542 69 288 0.0 0.0 0.00 0.01 0.00 97 1008.0
20260904111035 69 288 0.0 0.0 0.00 0.01 0.00 97 1008.0
20260904110535 69 288 0.0 0.0 0.00 0.01 0.00 97 1007.9
20260904110035 69 288 0.0 0.0 0.00 0.01 0.00 97 1007.9
20260904105535 69 288 0.0 0.0 0.00 0.01 0.00 97 1007.9
20260904105035 68 288 0.0 0.0 0.00 0.01 0.00 97 1008.0
20260904104037 68 288 0.0 0.0 0.00 0.01 0.00 97 1007.9
20260904103534 68 288 0.0 0.0 0.00 0.01 0.00 97 1007.9
20260904103048 69 288 0.0 0.0 0.00 0.02 0.00 97 1007.9
20260904102537 69 288 0.0 0.0 0.00 0.02 0.00 97 1007.7
20260904102035 69 288 0.0 0.0 0.00 0.02 0.00 97 1007.7
20260904101538 69 288 0.0 0.0 0.00 0.02 0.00 97 1007.7
20260904101034 69 288 0.0 0.0 0.00 0.02 0.00 97 1007.7
20260904100534 69 288 0.0 0.0 0.00 0.02 0.00 97 1007.6
20260904100034 69 288 0.0 0.0 0.00 0.02 0.00 97 1007.6
20260904095533 69 288 0.0 0.0 0.00 0.02 0.00 97 1007.6
20260904095034 68 288 0.0 0.0 0.00 0.02 0.00 97 1007.5
20260904094033 68 288 0.0 0.0 0.00 0.02 0.00 97 1007.4
20260904093533 68 288 0.0 0.0 0.00 0.02 0.00 97 1007.4
20260904093033 68 288 0.0 0.0 0.00 0.10 0.00 97 1007.3
20260904092533 68 288 0.0 0.0 0.00 0.10 0.00 97 1007.5
20260904092033 68 288 0.0 0.0 0.00 0.10 0.00 97 1007.5
20260904091533 68 288 0.0 0.0 0.00 0.10 0.00 97 1007.5
20260904091032 68 288 0.0 0.0 0.00 0.10 0.00 97 1007.4
20260904090533 68 288 0.0 0.0 0.00 0.10 0.00 97 1007.4
20260904090033 68 288 0.0 0.0 0.00 0.10 0.00 97 1007.3
20260904085532 68 288 0.0 0.0 0.00 0.10 0.00 97 1007.5
20260904085032 68 288 0.0 0.0 0.00 0.10 0.00 97 1007.5
20260904084031 68 288 0.0 0.0 0.00 0.10 0.00 97 1007.6
20260904083530 68 288 0.0 0.0 0.00 0.10 0.00 97 1007.5
20260904083040 68 288 0.0 0.0 0.00 0.13 0.00 97 1007.6
20260904082529 68 288 0.0 0.0 0.00 0.13 0.00 97 1007.5
20260904082028 68 288 0.0 0.0 0.00 0.13 0.00 97 1007.5
20260904081528 68 288 0.0 0.0 0.00 0.13 0.00 97 1007.4
20260904081028 68 288 0.0 0.0 0.00 0.13 0.00 97 1007.4
20260904080528 69 288 0.0 0.0 0.00 0.13 0.00 97 1007.4
20260904080028 69 288 0.0 0.0 0.00 0.13 0.00 97 1007.3
20260904075527 69 288 0.0 0.0 0.00 0.13 0.00 97 1007.4
20260904075029 69 288 0.0 0.0 0.00 0.13 0.00 97 1007.3
20260904074026 69 288 0.0 0.0 0.00 0.13 0.00 97 1007.5
20260904073526 69 288 0.0 0.0 0.00 0.13 0.00 97 1007.5
20260904073033 69 288 0.0 0.0 0.00 0.13 0.00 97 1007.7
20260904072524 69 288 0.0 0.0 0.00 0.13 0.00 97 1007.7
20260904072023 69 288 0.0 0.0 0.00 0.13 0.00 97 1007.9
20260904071523 69 288 0.0 0.0 0.00 0.13 0.00 97 1007.9
20260904071023 69 288 0.0 0.0 0.00 0.13 0.00 97 1008.0
20260904070522 69 288 0.0 0.0 0.00 0.13 0.00 97 1008.0
20260904070021 69 288 0.0 0.0 0.00 0.13 0.00 97 1008.0
20260904065526 69 288 0.0 0.0 0.00 0.13 0.00 97 1008.0
20260904065020 69 288 0.0 0.0 0.00 0.13 0.00 97 1008.1
20260904064019 69 288 0.0 0.0 0.00 0.13 0.00 97 1008.3
20260904063519 69 288 0.0 0.0 0.00 0.13 0.00 97 1008.3
20260904063019 69 288 0.0 0.0 0.00 0.13 0.00 96 1008.4
20260904062521 69 288 0.0 0.0 0.00 0.13 0.00 96 1008.4
20260904062018 69 288 0.0 0.0 0.00 0.13 0.00 96 1008.3
20260904061518 69 288 0.0 0.0 0.00 0.13 0.00 96 1008.4
20260904061018 69 288 0.0 0.0 0.00 0.13 0.00 96 1008.4
20260904060517 69 288 0.0 0.0 0.00 0.13 0.00 96 1008.4
20260904060023 69 288 0.0 0.0 0.00 0.13 0.00 96 1008.5
20260904055516 69 288 0.0 0.0 0.00 0.13 0.00 96 1008.5
20260904055016 69 288 0.0 0.0 0.00 0.13 0.00 96 1008.5
20260904054017 69 288 0.0 0.0 0.00 0.13 0.00 96 1008.5
20260904053516 69 288 0.0 0.0 0.00 0.13 0.00 96 1008.6
20260904053019 69 288 0.0 0.0 0.00 0.13 0.00 96 1008.7
20260904052514 69 288 0.0 0.0 0.00 0.13 0.00 96 1008.7
20260904052014 69 288 0.0 0.0 0.00 0.13 0.00 96 1008.8
20260904051513 69 288 0.0 0.0 0.00 0.13 0.00 96 1008.8
20260904051013 69 288 0.0 0.0 0.00 0.13 0.00 96 1008.9
20260904050512 69 288 0.0 0.0 0.00 0.13 0.00 96 1008.9
20260904050012 69 288 0.0 0.0 0.00 0.13 0.00 96 1008.9
20260904045512 69 288 0.0 0.0 0.00 0.13 0.00 96 1009.0
20260904045011 69 288 0.0 0.0 0.00 0.13 0.00 96 1009.0
20260904044010 70 288 0.0 0.0 0.00 0.13 0.00 96 1009.2
20260904043512 70 288 0.0 0.0 0.00 0.13 0.00 96 1009.2
20260904043015 70 288 0.0 0.0 0.00 0.13 0.00 95 1009.3